Time,TemperatureF,DewpointF,PressureIn,WindDirection,WindDirectionDegrees,WindSpeedMPH,WindSpeedGustMPH,Humidity,HourlyPrecipIn,Conditions,Clouds,dailyrainin,SoftwareType,DateUTC
2017-08-21 00:02:00,61.5,45.1,30.06,SSW,198,0.0,0.0,55,0.00,,,0.00,meteobridge,2017-08-21 07:02:00,
2017-08-21 00:08:00,61.5,45.1,30.06,SSW,198,0.0,0.0,55,0.00,,,0.00,meteobridge,2017-08-21 07:08:00,
2017-08-21 00:13:00,61.3,45.0,30.06,SSW,198,0.0,0.0,55,0.00,,,0.00,meteobridge,2017-08-21 07:13:00,
2017-08-21 00:18:00,61.0,45.1,30.06,SSW,198,0.0,0.0,56,0.00,,,0.00,meteobridge,2017-08-21 07:18:00,
2017-08-21 00:24:00,61.0,45.1,30.05,SSW,198,0.0,0.0,56,0.00,,,0.00,meteobridge,2017-08-21 07:24:00,
2017-08-21 00:29:00,60.6,45.3,30.05,SSW,198,0.0,0.0,57,0.00,,,0.00,meteobridge,2017-08-21 07:29:00,
2017-08-21 00:34:00,60.4,45.1,30.05,SSW,198,0.0,0.0,57,0.00,,,0.00,meteobridge,2017-08-21 07:34:00,
2017-08-21 00:39:00,60.3,45.5,30.06,SSW,198,0.0,0.0,58,0.00,,,0.00,meteobridge,2017-08-21 07:39:00,
2017-08-21 00:44:00,60.1,45.3,30.06,SSW,198,0.0,0.0,58,0.00,,,0.00,meteobridge,2017-08-21 07:44:00,
2017-08-21 00:50:00,59.7,45.0,30.06,SSW,198,0.0,0.0,58,0.00,,,0.00,meteobridge,2017-08-21 07:50:00,
2017-08-21 00:55:00,59.5,45.1,30.06,SSW,198,0.0,0.0,59,0.00,,,0.00,meteobridge,2017-08-21 07:55:00,
2017-08-21 01:00:00,59.5,45.1,30.06,SSW,198,0.0,0.0,59,0.00,,,0.00,meteobridge,2017-08-21 08:00:00,
2017-08-21 01:05:00,59.4,45.0,30.06,SSW,198,0.0,0.0,59,0.00,,,0.00,meteobridge,2017-08-21 08:05:00,
2017-08-21 01:11:00,59.2,44.8,30.06,SSW,198,0.0,0.0,59,0.00,,,0.00,meteobridge,2017-08-21 08:11:00,
2017-08-21 01:16:00,59.0,45.1,30.06,SSW,198,0.0,0.0,60,0.00,,,0.00,meteobridge,2017-08-21 08:16:00,
2017-08-21 01:21:00,58.6,44.8,30.06,SSW,198,0.0,0.0,60,0.00,,,0.00,meteobridge,2017-08-21 08:21:00,
2017-08-21 01:26:00,58.6,44.8,30.05,SSW,198,0.0,0.0,60,0.00,,,0.00,meteobridge,2017-08-21 08:26:00,
2017-08-21 01:31:00,58.5,45.1,30.05,SSW,198,0.0,0.0,61,0.00,,,0.00,meteobridge,2017-08-21 08:31:00,
2017-08-21 01:36:00,58.3,45.0,30.05,SSW,198,0.0,0.0,61,0.00,,,0.00,meteobridge,2017-08-21 08:36:00,
2017-08-21 01:42:00,58.1,45.1,30.05,SSW,198,0.0,0.0,62,0.00,,,0.00,meteobridge,2017-08-21 08:42:00,
2017-08-21 01:47:00,57.9,45.0,30.05,SSW,198,0.0,0.0,62,0.00,,,0.00,meteobridge,2017-08-21 08:47:00,
2017-08-21 01:52:00,57.7,44.8,30.05,SSW,198,0.0,0.0,62,0.00,,,0.00,meteobridge,2017-08-21 08:52:00,
2017-08-21 01:57:00,57.6,44.6,30.05,SSW,198,0.0,0.0,62,0.00,,,0.00,meteobridge,2017-08-21 08:57:00,
2017-08-21 02:02:00,57.6,45.5,30.05,SSW,198,0.0,0.0,64,0.00,,,0.00,meteobridge,2017-08-21 09:02:00,
2017-08-21 02:08:00,57.4,45.3,30.06,SSW,198,0.0,0.0,64,0.00,,,0.00,meteobridge,2017-08-21 09:08:00,
2017-08-21 02:14:00,57.2,45.1,30.06,SSW,198,0.0,0.0,64,0.00,,,0.00,meteobridge,2017-08-21 09:14:00,
2017-08-21 02:19:00,57.0,45.3,30.06,SSW,198,0.0,0.0,65,0.00,,,0.00,meteobridge,2017-08-21 09:19:00,
2017-08-21 02:24:00,56.8,45.7,30.07,SSW,198,0.0,0.0,66,0.00,,,0.00,meteobridge,2017-08-21 09:24:00,
2017-08-21 02:29:00,56.7,45.0,30.07,SSW,198,0.0,0.0,65,0.00,,,0.00,meteobridge,2017-08-21 09:29:00,
2017-08-21 02:35:00,56.7,45.5,30.07,SSW,198,0.0,0.0,66,0.00,,,0.00,meteobridge,2017-08-21 09:35:00,
2017-08-21 02:41:00,56.5,45.3,30.07,SSW,198,0.0,0.0,66,0.00,,,0.00,meteobridge,2017-08-21 09:41:00,
2017-08-21 02:46:00,56.3,45.1,30.07,SSW,198,0.0,0.0,66,0.00,,,0.00,meteobridge,2017-08-21 09:46:00,
2017-08-21 02:51:00,56.1,45.3,30.07,SSW,198,0.0,0.0,67,0.00,,,0.00,meteobridge,2017-08-21 09:51:00,
2017-08-21 02:56:00,55.9,45.5,30.07,SSW,198,0.0,0.0,68,0.00,,,0.00,meteobridge,2017-08-21 09:56:00,
2017-08-21 03:02:00,55.9,45.5,30.07,SSW,198,0.0,0.0,68,0.00,,,0.00,meteobridge,2017-08-21 10:02:00,
2017-08-21 03:07:00,55.8,45.3,30.07,SSW,198,0.0,0.0,68,0.00,,,0.00,meteobridge,2017-08-21 10:07:00,
2017-08-21 03:13:00,55.8,45.7,30.07,SSW,198,0.0,0.0,69,0.00,,,0.00,meteobridge,2017-08-21 10:13:00,
2017-08-21 03:18:00,55.6,45.5,30.07,SSW,198,0.0,0.0,69,0.00,,,0.00,meteobridge,2017-08-21 10:18:00,
2017-08-21 03:23:00,55.4,45.3,30.10,SSW,198,0.0,0.0,69,0.00,,,0.00,meteobridge,2017-08-21 10:23:00,
2017-08-21 03:28:00,55.2,45.1,30.10,SSW,198,0.0,0.0,69,0.00,,,0.00,meteobridge,2017-08-21 10:28:00,
2017-08-21 03:34:00,55.0,45.1,30.10,SSW,198,0.0,0.0,69,0.00,,,0.00,meteobridge,2017-08-21 10:34:00,
2017-08-21 03:39:00,55.0,45.5,30.10,SSW,198,0.0,0.0,70,0.00,,,0.00,meteobridge,2017-08-21 10:39:00,
2017-08-21 03:45:00,55.0,45.5,30.10,SSW,198,0.0,0.0,70,0.00,,,0.00,meteobridge,2017-08-21 10:45:00,
2017-08-21 03:50:00,54.9,45.3,30.10,SSW,198,0.0,0.0,70,0.00,,,0.00,meteobridge,2017-08-21 10:50:00,
2017-08-21 03:55:00,54.7,45.1,30.10,SSW,198,0.0,0.0,70,0.00,,,0.00,meteobridge,2017-08-21 10:55:00,
2017-08-21 04:00:00,54.7,45.5,30.10,SSW,198,0.0,0.0,71,0.00,,,0.00,meteobridge,2017-08-21 11:00:00,
2017-08-21 04:05:00,54.5,45.3,30.10,SSW,198,0.0,0.0,71,0.00,,,0.00,meteobridge,2017-08-21 11:05:00,
2017-08-21 04:11:00,54.3,45.1,30.09,SSW,198,0.0,0.0,71,0.00,,,0.00,meteobridge,2017-08-21 11:11:00,
2017-08-21 04:16:00,54.3,45.1,30.09,SSW,198,0.0,0.0,71,0.00,,,0.00,meteobridge,2017-08-21 11:16:00,
2017-08-21 04:21:00,54.1,45.0,30.09,SSW,198,0.0,0.0,71,0.00,,,0.00,meteobridge,2017-08-21 11:21:00,
2017-08-21 04:26:00,54.1,45.3,30.11,SSW,198,0.0,0.0,72,0.00,,,0.00,meteobridge,2017-08-21 11:26:00,
2017-08-21 04:32:00,54.1,45.3,30.11,SSW,198,0.0,0.0,72,0.00,,,0.00,meteobridge,2017-08-21 11:32:00,
2017-08-21 04:37:00,54.0,45.1,30.11,SSW,198,0.0,0.0,72,0.00,,,0.00,meteobridge,2017-08-21 11:37:00,
2017-08-21 04:42:00,54.0,45.1,30.11,SSW,198,0.0,0.0,72,0.00,,,0.00,meteobridge,2017-08-21 11:42:00,
2017-08-21 04:47:00,53.8,45.3,30.11,SSW,198,0.0,0.0,73,0.00,,,0.00,meteobridge,2017-08-21 11:47:00,
2017-08-21 04:52:00,53.6,45.1,30.12,SSW,198,0.0,0.0,73,0.00,,,0.00,meteobridge,2017-08-21 11:52:00,
2017-08-21 04:58:00,53.4,45.0,30.12,SSW,198,0.0,0.0,73,0.00,,,0.00,meteobridge,2017-08-21 11:58:00,
2017-08-21 05:03:00,53.2,44.8,30.12,SSW,198,0.0,0.0,73,0.00,,,0.00,meteobridge,2017-08-21 12:03:00,
2017-08-21 05:08:00,53.2,44.8,30.12,SSW,198,0.0,0.0,73,0.00,,,0.00,meteobridge,2017-08-21 12:08:00,
2017-08-21 05:13:00,53.2,44.8,30.12,SSW,198,0.0,0.0,73,0.00,,,0.00,meteobridge,2017-08-21 12:13:00,
2017-08-21 05:19:00,53.1,44.6,30.12,SSW,198,0.0,0.0,73,0.00,,,0.00,meteobridge,2017-08-21 12:19:00,
2017-08-21 05:24:00,53.1,44.6,30.13,SSW,198,0.0,0.0,73,0.00,,,0.00,meteobridge,2017-08-21 12:24:00,
2017-08-21 05:29:00,52.9,44.8,30.13,SSW,198,0.0,0.0,74,0.00,,,0.00,meteobridge,2017-08-21 12:29:00,
2017-08-21 05:34:00,52.9,44.8,30.13,SSW,198,0.0,0.0,74,0.00,,,0.00,meteobridge,2017-08-21 12:34:00,
2017-08-21 05:39:00,52.5,44.4,30.13,SSW,198,0.0,0.0,74,0.00,,,0.00,meteobridge,2017-08-21 12:39:00,
2017-08-21 05:45:00,52.5,44.4,30.13,SSW,198,0.0,0.0,74,0.00,,,0.00,meteobridge,2017-08-21 12:45:00,
2017-08-21 05:50:00,52.5,44.4,30.13,SSW,198,0.0,0.0,74,0.00,,,0.00,meteobridge,2017-08-21 12:50:00,
2017-08-21 05:55:00,52.3,44.6,30.14,SSW,198,0.0,0.0,75,0.00,,,0.00,meteobridge,2017-08-21 12:55:00,
2017-08-21 06:00:00,52.2,44.4,30.14,SSW,198,0.0,0.0,75,0.00,,,0.00,meteobridge,2017-08-21 13:00:00,
2017-08-21 06:05:00,52.2,44.4,30.14,SSW,198,0.0,0.0,75,0.00,,,0.00,meteobridge,2017-08-21 13:05:00,
2017-08-21 06:11:00,52.0,44.2,30.14,SSW,198,0.0,0.0,75,0.00,,,0.00,meteobridge,2017-08-21 13:11:00,
2017-08-21 06:16:00,52.0,44.6,30.14,SSW,198,0.0,0.0,76,0.00,,,0.00,meteobridge,2017-08-21 13:16:00,
2017-08-21 06:21:00,51.6,43.9,30.14,SSW,198,0.0,0.0,75,0.00,,,0.00,meteobridge,2017-08-21 13:21:00,
2017-08-21 06:27:00,51.6,44.2,30.15,SSW,198,0.0,0.0,76,0.00,,,0.00,meteobridge,2017-08-21 13:27:00,
2017-08-21 06:32:00,51.6,43.9,30.15,SSW,198,0.0,0.0,75,0.00,,,0.00,meteobridge,2017-08-21 13:32:00,
2017-08-21 06:37:00,51.4,44.1,30.17,SSW,198,0.0,0.0,76,0.00,,,0.00,meteobridge,2017-08-21 13:37:00,
2017-08-21 06:43:00,51.3,43.9,30.17,SSW,198,0.0,0.0,76,0.00,,,0.00,meteobridge,2017-08-21 13:43:00,
2017-08-21 06:48:00,51.3,43.9,30.17,SSW,198,0.0,0.0,76,0.00,,,0.00,meteobridge,2017-08-21 13:48:00,
2017-08-21 06:53:00,51.1,43.7,30.17,SSW,198,0.0,0.0,76,0.00,,,0.00,meteobridge,2017-08-21 13:53:00,
2017-08-21 06:58:00,51.1,44.1,30.17,SSW,198,0.0,0.0,77,0.00,,,0.00,meteobridge,2017-08-21 13:58:00,
2017-08-21 07:03:00,51.1,44.1,30.17,SSW,198,0.0,0.0,77,0.00,,,0.00,meteobridge,2017-08-21 14:03:00,
2017-08-21 07:09:00,51.1,44.1,30.17,SSW,198,0.0,0.0,77,0.00,,,0.00,meteobridge,2017-08-21 14:09:00,
2017-08-21 07:14:00,51.1,44.1,30.17,SSW,198,0.0,0.0,77,0.00,,,0.00,meteobridge,2017-08-21 14:14:00,
2017-08-21 07:19:00,51.1,44.4,30.17,SSW,198,0.0,0.0,78,0.00,,,0.00,meteobridge,2017-08-21 14:19:00,
2017-08-21 07:25:00,51.1,44.4,30.20,SSW,198,0.0,0.0,78,0.00,,,0.00,meteobridge,2017-08-21 14:25:00,
2017-08-21 07:30:00,51.1,44.4,30.20,SSW,198,0.0,0.0,78,0.00,,,0.00,meteobridge,2017-08-21 14:30:00,
2017-08-21 07:35:00,51.1,44.4,30.20,SSW,198,0.0,0.0,78,0.00,,,0.00,meteobridge,2017-08-21 14:35:00,
2017-08-21 07:40:00,51.1,44.8,30.20,SSW,198,0.0,0.0,79,0.00,,,0.00,meteobridge,2017-08-21 14:40:00,
2017-08-21 07:45:00,51.3,45.0,30.20,SSW,198,0.0,0.0,79,0.00,,,0.00,meteobridge,2017-08-21 14:45:00,
2017-08-21 07:51:00,51.4,45.5,30.20,SSW,198,0.0,0.0,80,0.00,,,0.00,meteobridge,2017-08-21 14:51:00,
2017-08-21 07:56:00,51.6,45.7,30.20,SSW,198,0.0,0.0,80,0.00,,,0.00,meteobridge,2017-08-21 14:56:00,
2017-08-21 08:01:00,51.6,46.0,30.20,SSW,198,0.0,0.0,81,0.00,,,0.00,meteobridge,2017-08-21 15:01:00,
2017-08-21 08:03:00,52.0,46.4,30.20,SSW,198,0.0,0.0,81,0.00,,,0.00,meteobridge,2017-08-21 15:03:00,
2017-08-21 08:09:00,52.0,46.4,30.20,SSW,198,0.0,0.0,81,0.00,,,0.00,meteobridge,2017-08-21 15:09:00,
2017-08-21 08:14:00,52.3,46.8,30.20,SSW,198,0.0,0.0,81,0.00,,,0.00,meteobridge,2017-08-21 15:14:00,
2017-08-21 08:20:00,52.5,47.1,30.20,SSW,198,0.0,0.0,82,0.00,,,0.00,meteobridge,2017-08-21 15:20:00,
2017-08-21 08:25:00,52.9,47.3,30.22,SSW,198,0.0,0.0,81,0.00,,,0.00,meteobridge,2017-08-21 15:25:00,
2017-08-21 08:30:00,53.2,47.5,30.22,SSW,198,0.0,0.0,81,0.00,,,0.00,meteobridge,2017-08-21 15:30:00,
2017-08-21 08:36:00,53.6,47.8,30.22,SSW,198,0.0,3.0,81,0.00,,,0.00,meteobridge,2017-08-21 15:36:00,
2017-08-21 08:41:00,54.1,47.8,30.21,North,0,0.0,2.0,79,0.00,,,0.00,meteobridge,2017-08-21 15:41:00,
2017-08-21 08:46:00,54.7,47.7,30.21,North,0,4.0,4.0,77,0.00,,,0.00,meteobridge,2017-08-21 15:46:00,
2017-08-21 08:51:00,55.2,47.5,30.21,North,0,0.0,2.0,75,0.00,,,0.00,meteobridge,2017-08-21 15:51:00,
2017-08-21 08:56:00,56.3,46.9,30.20,NNE,17,0.0,1.0,71,0.00,,,0.00,meteobridge,2017-08-21 15:56:00,
2017-08-21 09:01:00,57.4,47.3,30.20,NE,41,0.0,0.0,69,0.00,,,0.00,meteobridge,2017-08-21 16:01:00,
2017-08-21 09:07:00,58.3,47.3,30.20,NNE,30,0.0,2.0,67,0.00,,,0.00,meteobridge,2017-08-21 16:07:00,
2017-08-21 09:12:00,59.2,47.5,30.19,North,10,0.0,0.0,65,0.00,,,0.00,meteobridge,2017-08-21 16:12:00,
2017-08-21 09:17:00,59.9,47.7,30.19,NE,37,0.0,1.0,64,0.00,,,0.00,meteobridge,2017-08-21 16:17:00,
2017-08-21 09:22:00,60.6,47.5,30.19,ENE,72,0.0,1.0,62,0.00,,,0.00,meteobridge,2017-08-21 16:22:00,
2017-08-21 09:27:00,61.5,47.1,30.19,NNE,31,0.9,2.0,59,0.00,,,0.00,meteobridge,2017-08-21 16:27:00,
2017-08-21 09:32:00,62.8,47.8,30.19,NNE,21,0.0,2.0,58,0.00,,,0.00,meteobridge,2017-08-21 16:32:00,
2017-08-21 09:37:00,63.5,47.5,30.18,NNE,21,0.0,0.0,56,0.00,,,0.00,meteobridge,2017-08-21 16:37:00,
2017-08-21 09:42:00,64.2,47.7,30.18,NNE,21,0.0,0.0,55,0.00,,,0.00,meteobridge,2017-08-21 16:42:00,
2017-08-21 09:47:00,64.9,47.5,30.18,NNE,21,0.0,0.0,53,0.00,,,0.00,meteobridge,2017-08-21 16:47:00,
2017-08-21 09:53:00,65.7,47.5,30.17,NNE,23,0.0,0.0,52,0.00,,,0.00,meteobridge,2017-08-21 16:53:00,
2017-08-21 09:58:00,66.0,47.3,30.17,NNE,23,0.0,1.0,51,0.00,,,0.00,meteobridge,2017-08-21 16:58:00,
2017-08-21 10:03:00,66.4,46.0,30.17,NNE,23,0.0,1.0,48,0.00,,,0.00,meteobridge,2017-08-21 17:03:00,
2017-08-21 10:08:00,66.7,45.9,30.16,NNE,23,0.0,0.0,47,0.00,,,0.00,meteobridge,2017-08-21 17:08:00,
2017-08-21 10:13:00,67.1,46.8,30.16,North,1,0.0,0.0,48,0.00,,,0.00,meteobridge,2017-08-21 17:13:00,
2017-08-21 10:18:00,67.3,46.9,30.16,North,1,0.0,0.0,48,0.00,,,0.00,meteobridge,2017-08-21 17:18:00,
2017-08-21 10:24:00,67.3,46.9,30.18,North,1,0.0,0.0,48,0.00,,,0.00,meteobridge,2017-08-21 17:24:00,
2017-08-21 10:29:00,67.5,47.7,30.18,North,3,0.0,0.0,49,0.00,,,0.00,meteobridge,2017-08-21 17:29:00,
2017-08-21 10:34:00,67.5,47.7,30.18,North,3,0.0,0.0,49,0.00,,,0.00,meteobridge,2017-08-21 17:34:00,
2017-08-21 10:39:00,67.5,47.7,30.18,North,3,0.0,0.0,49,0.00,,,0.00,meteobridge,2017-08-21 17:39:00,
2017-08-21 10:44:00,67.5,48.2,30.18,North,3,0.0,0.0,50,0.00,,,0.00,meteobridge,2017-08-21 17:44:00,
2017-08-21 10:49:00,67.5,47.7,30.18,North,3,0.0,0.0,49,0.00,,,0.00,meteobridge,2017-08-21 17:49:00,
2017-08-21 10:55:00,67.5,48.2,30.19,NE,41,0.0,0.0,50,0.00,,,0.00,meteobridge,2017-08-21 17:55:00,
2017-08-21 11:00:00,67.6,47.8,30.19,NNE,16,0.0,1.0,49,0.00,,,0.00,meteobridge,2017-08-21 18:00:00,
2017-08-21 11:05:00,67.8,48.0,30.19,NNE,18,0.0,0.0,49,0.00,,,0.00,meteobridge,2017-08-21 18:05:00,
2017-08-21 11:10:00,67.8,48.0,30.17,North,1,0.0,1.0,49,0.00,,,0.00,meteobridge,2017-08-21 18:10:00,
2017-08-21 11:11:00,68.2,47.7,30.17,North,1,0.0,1.0,48,0.00,,,0.00,meteobridge,2017-08-21 18:11:00,
2017-08-21 11:16:00,68.4,45.7,30.17,North,1,0.0,1.0,44,0.00,,,0.00,meteobridge,2017-08-21 18:16:00,
2017-08-21 11:22:00,69.6,45.0,30.17,North,1,0.0,0.0,41,0.00,,,0.00,meteobridge,2017-08-21 18:22:00,
2017-08-21 11:27:00,70.3,45.0,30.17,North,1,0.0,0.0,40,0.00,,,0.00,meteobridge,2017-08-21 18:27:00,
2017-08-21 11:32:00,71.1,41.4,30.17,North,1,0.0,0.0,34,0.00,,,0.00,meteobridge,2017-08-21 18:32:00,
2017-08-21 11:37:00,74.1,41.5,30.16,North,1,0.0,1.0,31,0.00,,,0.00,meteobridge,2017-08-21 18:37:00,
2017-08-21 11:42:00,76.6,42.1,30.16,North,0,0.0,3.0,29,0.00,,,0.00,meteobridge,2017-08-21 18:42:00,
2017-08-21 11:48:00,78.1,41.4,30.16,NNE,20,0.0,0.0,27,0.00,,,0.00,meteobridge,2017-08-21 18:48:00,
2017-08-21 11:53:00,80.1,40.1,30.13,ENE,76,0.0,3.0,24,0.00,,,0.00,meteobridge,2017-08-21 18:53:00,
2017-08-21 11:58:00,81.0,39.7,30.13,NNW,335,0.0,1.0,23,0.00,,,0.00,meteobridge,2017-08-21 18:58:00,
2017-08-21 12:03:00,81.7,39.2,30.13,North,356,0.0,5.0,22,0.00,,,0.00,meteobridge,2017-08-21 19:03:00,
2017-08-21 12:09:00,82.2,39.6,30.12,North,3,0.9,3.0,22,0.00,,,0.00,meteobridge,2017-08-21 19:09:00,
2017-08-21 12:14:00,82.8,38.8,30.12,ENE,58,0.0,2.0,21,0.00,,,0.00,meteobridge,2017-08-21 19:14:00,
2017-08-21 12:19:00,83.1,40.3,30.12,North,0,0.0,0.0,22,0.00,,,0.00,meteobridge,2017-08-21 19:19:00,
2017-08-21 12:24:00,83.7,38.3,30.13,North,354,2.0,8.0,20,0.00,,,0.00,meteobridge,2017-08-21 19:24:00,
2017-08-21 12:29:00,83.8,38.5,30.13,East,99,0.0,6.0,20,0.00,,,0.00,meteobridge,2017-08-21 19:29:00,
2017-08-21 12:34:00,83.8,38.5,30.13,North,4,0.0,5.0,20,0.00,,,0.00,meteobridge,2017-08-21 19:34:00,
2017-08-21 12:39:00,84.7,39.2,30.13,North,0,0.0,1.0,20,0.00,,,0.00,meteobridge,2017-08-21 19:39:00,
2017-08-21 12:43:00,84.9,39.4,30.13,NNE,16,0.0,3.0,20,0.00,,,0.00,meteobridge,2017-08-21 19:43:00,
2017-08-21 12:48:00,84.9,38.1,30.13,NE,56,0.0,2.0,19,0.00,,,0.00,meteobridge,2017-08-21 19:48:00,
2017-08-21 12:53:00,84.7,37.9,30.11,North,0,0.0,1.0,19,0.00,,,0.00,meteobridge,2017-08-21 19:53:00,
2017-08-21 12:58:00,85.5,39.7,30.11,East,80,0.0,1.0,20,0.00,,,0.00,meteobridge,2017-08-21 19:58:00,
2017-08-21 13:03:00,85.6,39.9,30.11,ENE,59,0.0,0.0,20,0.00,,,0.00,meteobridge,2017-08-21 20:03:00,
2017-08-21 13:08:00,86.2,40.5,30.10,North,10,0.9,3.0,20,0.00,,,0.00,meteobridge,2017-08-21 20:08:00,
2017-08-21 13:13:00,86.4,37.9,30.10,North,4,0.9,6.0,18,0.00,,,0.00,meteobridge,2017-08-21 20:13:00,
2017-08-21 13:18:00,86.5,39.4,30.10,North,352,2.0,6.0,19,0.00,,,0.00,meteobridge,2017-08-21 20:18:00,
2017-08-21 13:23:00,87.1,39.7,30.10,North,356,0.0,5.0,19,0.00,,,0.00,meteobridge,2017-08-21 20:23:00,
2017-08-21 13:29:00,87.6,38.8,30.10,NNE,13,0.0,2.0,18,0.00,,,0.00,meteobridge,2017-08-21 20:29:00,
2017-08-21 13:34:00,87.6,40.3,30.10,NNE,13,0.0,1.0,19,0.00,,,0.00,meteobridge,2017-08-21 20:34:00,
2017-08-21 13:39:00,88.2,39.4,30.09,North,1,0.0,3.0,18,0.00,,,0.00,meteobridge,2017-08-21 20:39:00,
2017-08-21 13:44:00,88.3,40.8,30.09,NE,48,0.0,1.0,19,0.00,,,0.00,meteobridge,2017-08-21 20:44:00,
2017-08-21 13:49:00,88.3,39.4,30.09,NE,45,0.9,6.0,18,0.00,,,0.00,meteobridge,2017-08-21 20:49:00,
2017-08-21 13:54:00,88.3,39.4,30.08,NE,34,0.9,3.0,18,0.00,,,0.00,meteobridge,2017-08-21 20:54:00,
2017-08-21 13:59:00,88.3,39.4,30.08,North,353,2.0,10.0,18,0.00,,,0.00,meteobridge,2017-08-21 20:59:00,
2017-08-21 14:04:00,88.5,38.1,30.08,NW,311,0.9,2.0,17,0.00,,,0.00,meteobridge,2017-08-21 21:04:00,
2017-08-21 14:09:00,89.2,38.7,30.08,North,3,2.9,8.0,17,0.00,,,0.00,meteobridge,2017-08-21 21:09:00,
2017-08-21 14:14:00,90.1,39.4,30.08,NNW,346,0.9,10.0,17,0.00,,,0.00,meteobridge,2017-08-21 21:14:00,
2017-08-21 14:19:00,90.7,39.9,30.08,North,354,0.0,2.0,17,0.00,,,0.00,meteobridge,2017-08-21 21:19:00,
2017-08-21 14:24:00,90.7,38.3,30.08,NNE,14,0.0,1.0,16,0.00,,,0.00,meteobridge,2017-08-21 21:24:00,
2017-08-21 14:29:00,91.0,38.7,30.08,NNE,13,0.9,2.0,16,0.00,,,0.00,meteobridge,2017-08-21 21:29:00,
2017-08-21 14:34:00,91.0,40.1,30.08,ENE,58,0.9,3.0,17,0.00,,,0.00,meteobridge,2017-08-21 21:34:00,
2017-08-21 14:39:00,91.2,38.8,30.08,ENE,58,0.9,1.0,16,0.00,,,0.00,meteobridge,2017-08-21 21:39:00,
2017-08-21 14:45:00,91.2,38.8,30.08,North,0,2.0,3.0,16,0.00,,,0.00,meteobridge,2017-08-21 21:45:00,
2017-08-21 14:50:00,91.2,38.8,30.08,East,99,0.9,1.0,16,0.00,,,0.00,meteobridge,2017-08-21 21:50:00,
2017-08-21 14:55:00,90.7,36.7,30.07,North,357,0.0,6.0,15,0.00,,,0.00,meteobridge,2017-08-21 21:55:00,
2017-08-21 15:00:00,90.5,38.1,30.07,SSE,147,0.9,6.0,16,0.00,,,0.00,meteobridge,2017-08-21 22:00:00,
2017-08-21 15:05:00,90.7,38.3,30.07,SSE,147,0.9,1.0,16,0.00,,,0.00,meteobridge,2017-08-21 22:05:00,
2017-08-21 15:10:00,90.7,38.3,30.07,North,359,0.0,1.0,16,0.00,,,0.00,meteobridge,2017-08-21 22:10:00,
2017-08-21 15:15:00,90.5,36.5,30.07,NNE,30,0.0,3.0,15,0.00,,,0.00,meteobridge,2017-08-21 22:15:00,